sat.trackr.live / text

‹ back to catalog

STARLINK-30925

NORAD 58406 · 2023-180E

PAYLOAD ACTIVE UNKNOWN

§ Identity

Operator
Country
US
Launch date
2023-11-22
Launch site
AFETR
Launch vehicle
Mass (kg)
RCS (m²)

Purposes: comms

External: N2YO · Heavens-Above · Gunter

§ Orbital elements

Epoch: 2026-09-20T16:01:11.234496Z

Period
94.27 min
Inclination
43.0041°
Eccentricity
0.0000981
Mean motion
15.27578170 rev/d
Perigee alt
482.4 km
Apogee alt
483.7 km
Semi-major
6,861.2 km
B*
-7.4233e-6
RAAN
31.5657°
Arg perigee
277.4980°
Mean anomaly
82.5760°
Rev number
15,732

§ Raw data

STARLINK-309251 58406U 23180E   26263.66749114 -.00000466  00000+0 -74233-5 0  99952 58406  43.0041  31.5657 0000981 277.4980  82.5760 15.27578170157328

JSON: /api/v1/satellites/58406 · /tle

For live sub-satellite position, see the globe view (requires WebGL).

§ Visibility from observer

Set your observer location to see the next 7 days of passes ≥ 10°. The values pass through the URL so the page stays shareable.

No JS? Fill the form by hand. The geolocation button needs JavaScript.